Other Public Products
Issued by NWS Grand Forks, ND

Home | Current Version | Previous Version | Graphics & Text | Print | Product List | Glossary On
Versions: 1 2 3 4 5 6 7 8 9 10 11 12 13 14 15 16 17 18 19 20 21 22 23 24 25 26 27 28 29 30 31 32 33 34 35 36 37 38 39 40 41 42 43 44 45 46 47 48 49 50
000
FPUS83 KFGF 281010
OPUFGF
PRAIRIE TO PINES WEATHER ROUNDUP
NATIONAL WEATHER SERVICE EASTERN NORTH DAKOTA/GRAND FORKS ND
500 AM CDT THU MAY 28 2015

 **SATELLITE DATA USED TO AUGMENT SKY COVER AT AUTOMATED STATIONS**
 *****  WEATHER ACROSS EASTERN NORTH DAKOTA  *****

CITY           SKY/WX    TMP DP  RH WIND       PRES   REMARKS
GRAND FORKS    LGT RAIN  56  54  93 W5        29.97R
GRAND FORKS AF LGT RAIN  56  54  92 E2        29.97R
GRAND CITY NWS   N/A     55 N/A N/A NW6         N/A
BUXTON         NOT AVBL
DEVILS LAKE    CLOUDY    59  54  82 E8        29.92F
FARGO          LGT RAIN  63  58  83 NW7       29.94F
WAHPETON ARPT  CLOUDY    63  54  72 CALM      29.95F
$$

 *****  WEATHER ACROSS CENTRAL AND WESTERN NORTH DAKOTA  *****

CITY           SKY/WX    TMP DP  RH WIND       PRES   REMARKS
JAMESTOWN      CLOUDY    60  56  86 SE3       29.91F
BISMARCK       PTCLDY    57  55  93 SE5       29.89F
MINOT          CLOUDY    58  56  93 E7        29.88F
MINOT AFB      LGT RAIN  57  57 100 E9        29.87F FOG
GARRISON         N/A     59  56  89 SE5       29.88S
WILLISTON      CLOUDY    56  54  93 CALM      29.88S
DICKINSON      MOCLDY    50  48  93 SW3       29.88S FOG
HETTINGER      FOG       48  46  93 CALM      29.91S VSB 1/4
$$

 *****  OTHER OBSERVATIONS NORTHEAST NORTH DAKOTA  *****

CITY           SKY/WX    TMP DP  RH WIND       PRES   REMARKS
WALHALLA       RAIN      54  54 100 MISG      29.97S
LANGDON        CLOUDY    54  50  87 E10       29.95F
CAVALIER       LGT RAIN  54  48  82 N5        29.96F
GRAFTON        PTSUNNY   55  54  94 CALM      29.97R
CANDO          CLOUDY    54  50  87 E8        29.94F
FORT TOTTEN      N/A     59  55  88 SE6       29.95S
ROLLA          RAIN      54  54 100 SE12      29.95F
RUGBY          NOT AVBL
 ***** THE ABOVE OBSERVATIONS ARE NON NWS ARE NOT QUALITY
        CONTROLLED AND MAY MIS-REPORT RAIN FOR SNOW...
$$

 *****  OTHER OBSERVATIONS SOUTHEAST NORTH DAKOTA *****

CITY           SKY/WX    TMP DP  RH WIND       PRES   REMARKS
COOPERSTOWN    NOT AVBL
VALLEY CITY    LGT RAIN  59  59 100 E7        29.92F
OAKES            N/A     59  59 100 E7        29.92F
GWINNER        NOT AVBL
BUFFALO        NOT AVBL
WYNDMERE         N/A     64  57  77 N3          N/A
 ***** THE ABOVE OBSERVATIONS ARE NON NWS ARE NOT QUALITY
       CONTROLLED AND MAY MIS-REPORT RAIN FOR SNOW...
$$

  *****  WEATHER ACROSS NORTHERN MINNESOTA  *****

CITY           SKY/WX    TMP DP  RH WIND       PRES   REMARKS
FLAG ISLAND    MOCLDY    57  48  72 SE8       29.98F
WARROAD        MOCLDY    55  50  82 E6        29.98F
ROSEAU         CLOUDY    55  48  76 E3        29.97S
HALLOCK        LGT RAIN  57  52  82 N3        29.95R
THF RVR FALLS  CLOUDY    63  48  59 E7        29.95S
HALSTAD        NOT AVBL
FOSSTON        CLOUDY    61  50  67 SE7       29.95F
BAUDETTE       PTCLDY    53  47  79 SE7       29.99F
WASKISH        PTCLDY    52  46  82 CALM      29.99F
CROOKSTON      RAIN      61  55  82 W9        29.99R
$$
  *****  WEATHER ACROSS CENTRAL AND WEST MINNESOTA  *****

CITY           SKY/WX    TMP DP  RH WIND       PRES   REMARKS
BEMIDJI        MOCLDY    56  51  85 E7        29.98F
PARK RAPIDS    CLOUDY    62  50  64 SE7       29.98F
WADENA         CLOUDY    61  54  77 SE3       29.97F
DETROIT LAKES  CLOUDY    63  54  72 S7        29.96F
MOORHEAD       LGT RAIN  64  57  77 CALM      29.95F
FERGUS FALLS   CLOUDY    68  54  60 W14G21    29.97R
ELBOW LAKE     FAIR      64  53  68 SE8       29.96S
MORRIS MN      CLOUDY    63  54  72 S8        29.96S
STAPLES        CLOUDY    57  52  82 CALM      29.99S
WHEATON        CLOUDY    63  54  72 CALM      29.97R
$$
  *****  WEATHER ELSEWHERE ACROSS MINNESOTA  *****

CITY           SKY/WX    TMP DP  RH WIND       PRES   REMARKS
DULUTH         CLEAR     50  42  74 E9        30.08S
INTRNTL FALLS  CLEAR     50  46  86 SE6       30.03S
ELY            NOT AVBL
CLOQUET        CLEAR     48  41  76 E8        30.08S
BRAINERD       MOCLDY    58  53  84 CALM      30.01F
HIBBING        CLEAR     43  41  93 CALM      30.06S
ALEXANDRIA     CLOUDY    65  51  60 S10       30.00S
SAINT CLOUD    PTCLDY    54  53  97 SE5       30.01S
MINNEAPOLIS    PTCLDY    63  54  72 SE3       30.04R
$$

  *****  WEATHER ACROSS SOUTH DAKOTA  *****

CITY           SKY/WX    TMP DP  RH WIND       PRES   REMARKS
SIOUX FALLS    MOCLDY    64  51  62 S7        30.02S
BROOKINGS      CLOUDY    63  52  67 SE8       30.02S
WATERTOWN      CLOUDY    61  52  72 S7        29.98F
HURON            N/A    N/A N/A N/A MISG      29.95S
SISSETON         N/A     63  56  78 S6        29.94S
ABERDEEN       LGT RAIN  62  58  86 E6        29.93F
MITCHELL       MOCLDY    63  53  70 SE9       29.98S
PIERRE         CLEAR     58  54  86 SE7       29.89F
MOBRIDGE       CLEAR     60  58  92 SE7       29.86F
RAPID CITY     LGT RAIN  55  53  93 NE3       29.92S
$$

  *****  SOME WEATHER IN NEARBY STATES *****

CITY           SKY/WX    TMP DP  RH WIND       PRES   REMARKS
GLASGOW MT     FOG       50  49  96 W8        29.88R VSB 1/4
GREAT FALLS MT CLOUDY    50  47  89 SW7       29.99S
CHEYENNE WY    MOCLDY    48  47  96 W5        30.08F
SCOTTSBLUFF NE MOCLDY    53  50  89 CALM      30.00F
OMAHA NE       CLOUDY    63  54  72 SE5       30.04S
DES MOINES IA  PTCLDY    63  55  75 S6        30.09S
DAVENPORT IA   CLEAR     60  54  80 SE3       30.16S
CHICAGO IL     PTCLDY    55  53  93 CALM      30.16S
EAU CLAIRE WI  CLEAR     54  52  93 CALM      30.07R
LA CROSSE WI   CLEAR     62  58  86 SE5       30.10R
$$

  *****  SOME NATIONAL WEATHER *****

CITY           SKY/WX    TMP DP  RH WIND       PRES   REMARKS
LA GUARDIA NY  CLOUDY    68  61  78 S7        30.14R
RALEIGH NC     CLOUDY    69  67  93 S7        30.21R FOG
ATLANTA GA     CLOUDY    67  64  90 SE5       30.18R
NEW ORLEANS LA PTCLDY    71  67  87 CALM      30.08R
OKLAHOMA CITY  CLOUDY    68  65  90 E8        30.00F THUNDER
ALBUQUERQUE NM CLOUDY    55  34  45 SE6       30.09R
SALT LAKE CITY PTCLDY    51  47  86 SE9       30.08F
LOS ANGELES CA MOCLDY    57  55  94 W6        29.97S
BOISE ID       CLEAR     53  45  74 CALM      30.04R
SEATTLE WA     CLEAR     57  52  83 W3        30.05S
$$

*** WEATHER ACROSS MANITOBA...SASKATCHEWAN AND ONTARIO ***
                ***ONTARIO***

CITY           SKY/WX    TMP DP  RH WIND       PRES   REMARKS
GERALDTON      PTCLDY    34  32  93 E5        30.22R
THUNDER BAY    PTCLDY    41  39  93 E3        30.19R
SIOUX LOOKOUT  MOCLDY    45  41  87 SE6       30.10S
TORONTO        CLOUDY    61  52  72 NW24G32   30.11R
BIG TROUT LK   MOCLDY    34  30  86 NE7       30.23R
PICKLE LAKE    NOT AVBL
DRYDEN         CLEAR     48  41  76 E8        30.06F
KENORA         MOCLDY    52  45  76 SE9       30.02F
$$
                *** MANITOBA***

CITY           SKY/WX    TMP DP  RH WIND       PRES   REMARKS
BRANDON        CLOUDY    48  46  93 E9        29.95F
DAUPHIN        PTCLDY    45  36  70 VRB2      29.96F
ISLAND LAKE    PTCLDY    41  32  70 E2        30.11S
PILOT MOUND      N/A     50  48  93 E8          N/A
THE PAS        CLOUDY    43  36  75 SE12      29.92F
THOMPSON       CLOUDY    45  30  57 SE6       30.05R
WINNIPEG       CLOUDY    52  45  76 E6        29.97F
LYNN LAKE      LGT RAIN  34  34 100 NE17G23   29.99R WCI  23
CHURCHILL      CLOUDY    28  25  86 NE7       30.33S WCI  21
GILLAM         CLOUDY    30  23  74 E8        30.22F WCI  23
$$
                ***SASKATCHEWAN***

CITY           SKY/WX    TMP DP  RH WIND       PRES   REMARKS
ESTEVAN        MOCLDY    55  54  94 E8        29.89S
KINDERSLEY     PTCLDY    55  50  82 N7        29.94F
LLOYDMINSTER   CLOUDY    48  45  87 N12       30.04R
PRINCE ALBERT  CLOUDY    50  48  93 S3        29.88F
REGINA         MOCLDY    55  50  82 SE5       29.92S
YORKTON        MOCLDY    50  41  71 SE10      29.92F



USA.gov is the U.S. government's official web portal to all federal, state and local government web resources and services.